• In Deutschland
  • Länderverzeichnis
  • Für 7 Tage
  • Wassertemperatur
  • Satellitenkarten
  • Wetterkarte
  • Widgets
  • user-avatar
    Anmelden

    Stündliche Wetter Constantine

    Heute, 16 Januar, Dienstag

    Zeit Temperatur Niederschläge Wind Luftdruck Luftfeuchtigkeit
    00:00 +7°C° 0 mm 1 m/S 715 mmHg 90%
    01:00 +7°C° 0 mm 1 m/S 715 mmHg 90%
    02:00 +7°C° 0 mm 1 m/S 715 mmHg 91%
    03:00 +6°C° 0 mm 1 m/S 716 mmHg 91%
    04:00 +6°C° 0 mm 1 m/S 715 mmHg 91%
    05:00 +6°C° 0 mm 1 m/S 715 mmHg 90%
    06:00 +6°C° 0 mm 1 m/S 715 mmHg 90%
    07:00 +8°C° 0 mm 1 m/S 716 mmHg 84%
    08:00 +9°C° 0 mm 1 m/S 716 mmHg 77%
    09:00 +11°C° 0 mm 1 m/S 717 mmHg 71%
    10:00 +12°C° 0 mm 2 m/S 717 mmHg 64%
    11:00 +13°C° 0 mm 2 m/S 717 mmHg 57%
    12:00 +15°C° 0 mm 2 m/S 717 mmHg 50%
    13:00 +15°C° 0 mm 2 m/S 716 mmHg 49%
    14:00 +15°C° 0 mm 2 m/S 716 mmHg 47%
    15:00 +16°C° 0 mm 2 m/S 716 mmHg 46%
    16:00 +14°C° 0 mm 2 m/S 715 mmHg 54%
    17:00 +12°C° 0 mm 1 m/S 715 mmHg 63%
    18:00 +10°C° 0 mm 1 m/S 714 mmHg 71%
    19:00 +10°C° 0 mm 1 m/S 715 mmHg 70%
    20:00 +9°C° 0 mm 1 m/S 715 mmHg 70%
    21:00 +8°C° 0 mm 2 m/S 715 mmHg 69%
    22:00 +8°C° 0 mm 2 m/S 715 mmHg 67%
    23:00 +8°C° 0 mm 2 m/S 714 mmHg 65%

    Morgen, 17 Januar, Mittwoch

    Zeit Temperatur Niederschläge Wind Luftdruck Luftfeuchtigkeit
    00:00 +8°C° 0 mm 2 m/S 714 mmHg 64%
    01:00 +7°C° 0 mm 2 m/S 714 mmHg 62%
    02:00 +7°C° 0 mm 2 m/S 713 mmHg 61%
    03:00 +7°C° 0 mm 2 m/S 713 mmHg 60%
    04:00 +7°C° 0 mm 2 m/S 713 mmHg 59%
    05:00 +7°C° 0 mm 2 m/S 713 mmHg 58%
    06:00 +6°C° 0 mm 2 m/S 713 mmHg 58%
    07:00 +8°C° 0 mm 2 m/S 713 mmHg 54%
    08:00 +10°C° 0 mm 2 m/S 713 mmHg 51%
    09:00 +13°C° 0 mm 2 m/S 714 mmHg 48%
    10:00 +13°C° 0 mm 3 m/S 714 mmHg 45%
    11:00 +14°C° 0 mm 4 m/S 714 mmHg 43%
    12:00 +15°C° 0 mm 4 m/S 714 mmHg 40%
    13:00 +15°C° 0 mm 4 m/S 714 mmHg 45%
    14:00 +14°C° 0 mm 4 m/S 714 mmHg 51%
    15:00 +14°C° 0 mm 4 m/S 714 mmHg 56%
    16:00 +12°C° 0 mm 4 m/S 714 mmHg 66%
    17:00 +11°C° 0 mm 3 m/S 714 mmHg 76%
    18:00 +9°C° 0 mm 2 m/S 714 mmHg 86%
    19:00 +8°C° 0 mm 2 m/S 715 mmHg 88%
    20:00 +9°C° 0 mm 1 m/S 715 mmHg 90%
    21:00 +9°C° 0 mm 1 m/S 716 mmHg 92%
    22:00 +8°C° 0 mm 1 m/S 716 mmHg 93%
    23:00 +8°C° 0 mm 1 m/S 716 mmHg 93%

    übermorgen, 18 Januar, Donnerstag

    Zeit Temperatur Niederschläge Wind Luftdruck Luftfeuchtigkeit
    00:00 +8°C° 0 mm 1 m/S 716 mmHg 94%
    01:00 +6°C° 0 mm 0 m/S 716 mmHg 94%
    02:00 +6°C° 0 mm 0 m/S 715 mmHg 94%
    03:00 +6°C° 0 mm 0 m/S 715 mmHg 95%
    04:00 +6°C° 0 mm 1 m/S 715 mmHg 95%
    05:00 +6°C° 0 mm 1 m/S 715 mmHg 95%
    06:00 +6°C° 0 mm 1 m/S 715 mmHg 95%
    07:00 +7°C° 0 mm 1 m/S 716 mmHg 89%
    08:00 +9°C° 0 mm 1 m/S 716 mmHg 83%
    09:00 +10°C° 0 mm 1 m/S 717 mmHg 78%
    10:00 +12°C° 0 mm 2 m/S 716 mmHg 69%
    11:00 +14°C° 0 mm 2 m/S 716 mmHg 60%
    12:00 +15°C° 0 mm 2 m/S 716 mmHg 52%
    13:00 +16°C° 0 mm 2 m/S 716 mmHg 49%
    14:00 +16°C° 0 mm 2 m/S 715 mmHg 47%
    15:00 +17°C° 0 mm 2 m/S 715 mmHg 45%
    16:00 +15°C° 0 mm 2 m/S 714 mmHg 51%
    17:00 +13°C° 0 mm 2 m/S 714 mmHg 58%
    18:00 +10°C° 0 mm 2 m/S 714 mmHg 64%
    19:00 +9°C° 0 mm 2 m/S 713 mmHg 66%
    20:00 +9°C° 0 mm 2 m/S 713 mmHg 67%
    21:00 +9°C° 0 mm 2 m/S 713 mmHg 68%
    22:00 +8°C° 0 mm 2 m/S 713 mmHg 70%
    23:00 +8°C° 0 mm 2 m/S 712 mmHg 72%

    19 Januar, Freitag

    Zeit Temperatur Niederschläge Wind Luftdruck Luftfeuchtigkeit
    00:00 +7°C° 0 mm 2 m/S 712 mmHg 74%
    01:00 +7°C° 0 mm 2 m/S 711 mmHg 76%
    02:00 +7°C° 0 mm 2 m/S 711 mmHg 78%
    03:00 +6°C° 0 mm 2 m/S 710 mmHg 80%
    04:00 +6°C° 0 mm 2 m/S 710 mmHg 80%
    05:00 +6°C° 0 mm 2 m/S 710 mmHg 81%
    06:00 +5°C° 0 mm 2 m/S 709 mmHg 81%
    07:00 +7°C° 0 mm 2 m/S 709 mmHg 74%
    08:00 +9°C° 0 mm 2 m/S 709 mmHg 67%
    09:00 +12°C° 0 mm 2 m/S 709 mmHg 60%
    10:00 +13°C° 0 mm 2 m/S 709 mmHg 53%
    11:00 +15°C° 0 mm 1 m/S 709 mmHg 46%
    12:00 +16°C° 0 mm 1 m/S 708 mmHg 39%
    13:00 +18°C° 0 mm 1 m/S 708 mmHg 39%
    14:00 +17°C° 0 mm 2 m/S 707 mmHg 39%
    15:00 +17°C° 0 mm 2 m/S 706 mmHg 39%
    16:00 +15°C° 0 mm 2 m/S 706 mmHg 50%
    17:00 +13°C° 0 mm 2 m/S 706 mmHg 60%
    18:00 +11°C° 0 mm 1 m/S 706 mmHg 70%
    19:00 +10°C° 0 mm 1 m/S 706 mmHg 74%
    20:00 +10°C° 0 mm 1 m/S 706 mmHg 79%
    21:00 +9°C° 0 mm 1 m/S 706 mmHg 83%
    22:00 +9°C° 0 mm 1 m/S 705 mmHg 85%
    23:00 +8°C° 0 mm 1 m/S 705 mmHg 86%

    20 Januar, Samstag

    Zeit Temperatur Niederschläge Wind Luftdruck Luftfeuchtigkeit
    00:00 +8°C° 0 mm 1 m/S 705 mmHg 88%
    01:00 +7°C° 0 mm 2 m/S 705 mmHg 88%
    02:00 +7°C° 0 mm 2 m/S 704 mmHg 87%
    03:00 +7°C° 0 mm 2 m/S 704 mmHg 87%
    04:00 +7°C° 0,1 mm 3 m/S 704 mmHg 87%
    05:00 +6°C° 0,1 mm 4 m/S 704 mmHg 87%
    06:00 +6°C° 0,1 mm 5 m/S 704 mmHg 88%
    07:00 +7°C° 0 mm 6 m/S 705 mmHg 82%
    08:00 +6°C° 0 mm 7 m/S 705 mmHg 77%
    09:00 +7°C° 0 mm 8 m/S 705 mmHg 72%
    10:00 +6°C° 0,5 mm 9 m/S 705 mmHg 72%
    11:00 +6°C° 0,5 mm 10 m/S 705 mmHg 73%
    12:00 +5°C° 0,5 mm 10 m/S 704 mmHg 74%
    13:00 +4°C° 1 mm 11 m/S 704 mmHg 75%
    14:00 +3°C° 1 mm 12 m/S 704 mmHg 76%
    15:00 +3°C° 1 mm 12 m/S 705 mmHg 77%
    16:00 +2°C° 1,2 mm 12 m/S 705 mmHg 78%
    17:00 +1°C° 1,2 mm 11 m/S 706 mmHg 79%
    18:00 +1°C° 1,2 mm 11 m/S 706 mmHg 80%
    19:00 +1°C° 0,5 mm 10 m/S 707 mmHg 80%
    20:00 0°C° 0,5 mm 9 m/S 707 mmHg 80%
    21:00 0°C° 0,5 mm 8 m/S 707 mmHg 79%
    22:00 0°C° 0,3 mm 8 m/S 707 mmHg 81%
    23:00 0°C° 0,3 mm 7 m/S 707 mmHg 83%

    21 Januar, Sonntag

    Zeit Temperatur Niederschläge Wind Luftdruck Luftfeuchtigkeit
    00:00 0°C° 0,3 mm 7 m/S 707 mmHg 85%
    01:00 +2°C° 0,1 mm 7 m/S 707 mmHg 86%
    02:00 +2°C° 0,1 mm 7 m/S 707 mmHg 87%
    03:00 +3°C° 0,1 mm 7 m/S 707 mmHg 89%
    04:00 +3°C° 0,1 mm 6 m/S 706 mmHg 90%
    05:00 +3°C° 0,1 mm 6 m/S 706 mmHg 91%
    06:00 +3°C° 0,1 mm 5 m/S 706 mmHg 92%
    07:00 +3°C° 0,7 mm 5 m/S 706 mmHg 92%
    08:00 +5°C° 0,7 mm 5 m/S 706 mmHg 92%
    09:00 +6°C° 0,7 mm 5 m/S 706 mmHg 91%
    10:00 +6°C° 0,9 mm 7 m/S 706 mmHg 89%
    11:00 +7°C° 0,9 mm 9 m/S 706 mmHg 86%
    12:00 +8°C° 0,9 mm 11 m/S 706 mmHg 83%
    13:00 +8°C° 0,4 mm 11 m/S 706 mmHg 83%
    14:00 +8°C° 0,4 mm 10 m/S 706 mmHg 83%
    15:00 +8°C° 0,4 mm 10 m/S 706 mmHg 82%
    16:00 +8°C° 0,4 mm 9 m/S 707 mmHg 86%
    17:00 +8°C° 0,4 mm 7 m/S 707 mmHg 89%
    18:00 +8°C° 0,4 mm 6 m/S 707 mmHg 93%
    19:00 +8°C° 0,3 mm 5 m/S 708 mmHg 94%
    20:00 +7°C° 0,3 mm 5 m/S 708 mmHg 94%
    21:00 +7°C° 0,3 mm 4 m/S 709 mmHg 95%
    22:00 +7°C° 0,1 mm 4 m/S 709 mmHg 95%
    23:00 +7°C° 0,1 mm 4 m/S 709 mmHg 94%
    Mehr zeigen